Location: LDNL
(36.4545°S, 141.6685°E)
Time: 18:14:44
(UTC+10:00)

A-11 Canister half - Pass Details

Date: 04 February 2022
Orbit: 1527 x 1682 km, 47.3° (Epoch: 20 May)

Event Time Altitude Azimuth Distance (km) Brightness Sun altitude
Rises 03:03:00 0° 241° (WSW) 4,936 11.7 -34.2°
Reaches altitude 10° 03:06:18 10° 237° (WSW) 3,934 11.2 -33.9°
Maximum altitude 03:16:15 60° 158° (SSE) 1,837 9.5 -33.1°
Drops below altitude 10° 03:25:51 10° 78° (ENE) 3,804 11.2 -32.2°
Sets 03:28:58 0° 74° (ENE) 4,765 11.7 -31.9°
